Tracking 27079 objects as of 24-Mar-2023
HD Live streaming from Space Station
objects crossing your sky now

STARLINK-3194

Track STARLINK-3194 now!
10-day predictions
STARLINK-3194 is classified as:


NORAD ID: 49758
Int'l Code: 2021-115AL
Perigee: 546.1 km
Apogee: 547.6 km
Inclination: 53.2 °
Period: 95.4 minutes
Semi major axis: 6917 km
RCS: Unknown
Launch date: December 2, 2021
Source: United States (US)
Launch site: AIR FORCE EASTERN TEST RANGE (AFETR)
Your satellite tracking list
Your tracking list is empty




NASA's NSSDC Master Catalog

Two Line Element Set (TLE):
1 49758U 21115AL  23082.92783635  .00004456  00000-0  29781-3 0  9990
2 49758  53.2148 315.3435 0001090  88.4982 271.6135 15.08847498 72368
Source of the keplerian elements: AFSPC